Regional Weather Roundup
Issued by NWS Upton, NY

Home | Current Version | Previous Version | Text Only | Print | Product List | Glossary On
Versions: 1 2 3 4 5 6 7 8 9 10 11 12 13 14 15 16 17 18 19 20 21 22 23 24 25 26 27 28 29 30 31 32 33 34 35 36 37 38 39 40 41 42 43 44 45 46 47 48 49 50
000
ASUS41 KOKX 280505
RWROKX

REGIONAL WEATHER ROUNDUP
NATIONAL WEATHER SERVICE NEW YORK NY
100 AM EDT THU AUG 28 2014

NOTE: "FAIR" INDICATES FEW OR NO CLOUDS BELOW 12,000 FEET WITH NO
SIGNIFICANT WEATHER AND/OR OBSTRUCTIONS TO VISIBILITY.

NYZ071-072-176-178-NJZ106-104-280600-
NEW YORK CITY METRO AREA


CITY           SKY/WX    TMP DP  RH WIND       PRES   REMARKS
CENTRAL PARK   PTCLDY    78  65  63 NW7       29.90S
LAGUARDIA APRT MOCLDY    77  67  71 N5        29.86S
KENNEDY INTL   MOCLDY    74  68  81 W6        29.87S
NEWARK/LIBERTY MOCLDY    80  66  62 N12       29.87S
BRNX BOT. GARD   N/A     75  66  73 NW3       29.89R
TETERBORO      RAIN      75  68  78 N5        29.87R
$$

NYZ177-179-078>081-280600-
LONG ISLAND NEW YORK

CITY           SKY/WX    TMP DP  RH WIND       PRES   REMARKS
FARMINGDALE    PTCLDY    73  68  84 E3        29.87S
ISLIP          PTCLDY    72  67  84 CALM      29.86S
SHIRLEY        PTCLDY    69  66  90 CALM      29.87F
WESTHAMPTON    PTCLDY    68  64  87 NW5       29.88F
MONTAUK POINT    N/A     71  66  84 CALM      29.87F
$$

NYZ052-065-067-280600-
HUDSON VALLEY

CITY           SKY/WX    TMP DP  RH WIND       PRES   REMARKS
WHITE PLAINS   MOCLDY    73  68  84 NW7       29.89S
NEWBURGH       NOT AVBL
MONTGOMERY     CLOUDY    74  64  71 CALM      29.91S
POUGHKEEPSIE   MOCLDY    72  68  87 CALM      29.89F
ALBANY         PTCLDY    67  57  70 W9        29.93R
$$

NJZ001-105-106-008-010-013-015-019>022-104-280600-
NEW JERSEY

CITY           SKY/WX    TMP DP  RH WIND       PRES   REMARKS
NEWARK/LIBERTY MOCLDY    80  66  62 N12       29.87S
TETERBORO      RAIN      75  68  78 N5        29.87R
CALDWELL       LGT RAIN  74  70  87 CALM      29.89S
MORRISTOWN     CLOUDY    79  68  69 NW6       29.89S
SOMERVILLE     PTCLDY    78  68  71 N7        29.87S
LINDEN         FAIR      83  70  63 N6        29.88S
SUSSEX         CLOUDY    76  66  71 VRB6      29.93R
ANDOVER          N/A     74  67  78 N7        29.92F
TRENTON        CLEAR     76  68  76 N8        29.87F
MILLVILLE      CLEAR     68  66  93 W3        29.88F
ATLANTIC CITY  CLEAR     71  67  87 W6        29.87F
WRIGHTSTOWN    CLEAR     72  66  82 W3        29.85F
TOMS RIVER     PTCLDY    70  64  83 W5        29.87S
BELMAR         PTCLDY    72  63  73 W6        29.86F
$$

PAZ047>061-062-071-280600-
EASTERN PENNSYLVANIA

CITY           SKY/WX    TMP DP  RH WIND       PRES   REMARKS
PHILADELPHIA   CLOUDY    77  68  73 W7        29.88F
ALLENTOWN      MOCLDY    75  68  78 N3        29.92S
SCRANTON       PTCLDY    71  58  63 N10       29.98S
$$

CTZ002-004>006-009-010-012-RIZ004-006-007-MAZ004-011-015-280600-
SOUTHERN NEW ENGLAND
 IN CT

CITY           SKY/WX    TMP DP  RH WIND       PRES   REMARKS
BRADLEY INTL   MOCLDY    71  61  70 N6        29.87F
HARTFORD       MOCLDY    74  60  61 N9        29.87S
DANBURY        MOCLDY    70  67  90 VRB5      29.92R
WTRBRY/OXFORD  MOCLDY    68  63  83 N7        29.92F
BRIDGEPORT     MOCLDY    73  69  87 N6        29.87S
MERIDEN        MOCLDY    72  65  78 CALM      29.88S
NEW HAVEN      PTCLDY    73  69  87 N3        29.87F
CHESTER        FAIR      72  66  83 CALM      29.88F
GROTON         MOCLDY    71  67  87 W5        29.85F
WILLIMANTIC    PTCLDY    71  68  90 CALM      29.87S

 IN RI

CITY           SKY/WX    TMP DP  RH WIND       PRES   REMARKS
PROVIDENCE     CLOUDY    73  63  70 W5        29.86F
BLOCK ISLAND   PTCLDY    72  64  78 W10       29.85F
WESTERLY       MOCLDY    71  66  84 W3        29.86F

 IN MA

CITY           SKY/WX    TMP DP  RH WIND       PRES   REMARKS
BOSTON         MOCLDY    75  69  81 W8        29.83
WORCESTER      PTCLDY    69  65  86 W10       29.89S
WESTFIELD      MOCLDY    69  61  75 CALM      29.88F
PROVINCETOWN   CLOUDY    70  63  78 SW9       29.82F
NANTUCKET      FOG       68  66  94 S6        29.86F VSB 1
$$

ANZ330-335-338-340-345-350-353-355-280600-
COASTAL MARINE OBSERVATIONS


STATION/POSITION TIME  SKY/WX   TEMP    WIND        PRES    VSBY  WAVE
                                AIR SEA DIR/SP/G                  HT/PER
                 (UTC)          (F)     (DEG/KT/KT) (MB)    (MI)  (FT/S)
NY HARB ENTRANCE NOT AVBL
4S FIRE IS       NOT AVBL
23SW MTP         0500                                 N/A           5/15
HUDSON CANYON    0500            73 74  230/  6/  6 1011.2          7/14
EXECUTION ROCKS  0500            75 74   20/  4/  4   N/A
WESTERN LI SOUND 0500            75      30/  6/  8   N/A           0
CENTRAL LI SOUND 0400            74 74  250/  4/  4   N/A           1
EASTERN LI SOUND 0400            71 69  230/  4/  6   N/A
ROBBINS REEF     0500            77     360/  5/  7   N/A
$$


>>>>>>>>>>>>>>>>>>>>>>>>>>>> KEY <<<<<<<<<<<<<<<<<<<<<<<<<<<
>                                                          <
>     SKY/WX - SKY CONDITION/PRESENT WEATHER               <
>     TMP    - TEMPERATURE IN FAHRENHEIT                   <
>     DP     - DEWPOINT IN FAHRENHEIT                      <
>     RH     - RELATIVE HUMIDITY IN PERCENT                <
>     WIND   - DIRECTION AND SPEED IN MPH                  <
>     PRES   - MEAN SEA LEVEL PRESSURE IN INCHES OF HG     <
>     WCI    - WIND CHILL INDEX                            <
>     VSB    - VISIBILITY IN MILES                         <
>     HX     - HEAT INDEX                                  <
>     TC     - TEMPERATURE IN CELSIUS                      <
>     VRB    - VARIABLE WIND DIRECTION                     <
>                                                          <
>>>>>>>>>>>>>>>>>>>>>>>>>>>> KEY <<<<<<<<<<<<<<<<<<<<<<<<<<<





USA.gov is the U.S. government's official web portal to all federal, state and local government web resources and services.